Date,Flow_cfs,Flow_in
2000-01-01,46.0,0.02327542587282847
2000-01-02,46.0,0.02327542587282847
2000-01-03,52.0,0.02631135098667566
2000-01-04,61.0,0.030865238657446455
2000-01-05,96.0,0.04857480182155507
2000-01-06,84.0,0.04250295159386067
2000-01-07,75.0,0.037949063923089894
2000-01-08,69.0,0.03491313880924271
2000-01-09,64.0,0.03238320121437004
2000-01-10,63.0,0.031877213695395513
2000-01-11,158.0,0.07994602799797607
2000-01-12,151.0,0.07640411536515433
2000-01-13,107.0,0.054140664530274926
2000-01-14,71.0,0.03592511384719177
2000-01-15,59.0,0.02985326361949739
2000-01-16,50.0,0.025299375948726596
2000-01-17,49.0,0.024793388429752067
2000-01-18,48.0,0.024287400910777534
2000-01-19,46.0,0.02327542587282847
2000-01-20,44.0,0.022263450834879406
2000-01-21,43.0,0.021757463315904873
2000-01-22,41.0,0.02074548827795581
2000-01-23,37.0,0.018721538202057682
2000-01-24,37.0,0.018721538202057682
2000-01-25,37.0,0.018721538202057682
2000-01-26,41.0,0.02074548827795581
2000-01-27,45.0,0.02276943835385394
2000-01-28,43.0,0.021757463315904873
2000-01-29,41.0,0.02074548827795581
2000-01-30,40.0,0.020239500758981278
2000-01-31,42.0,0.021251475796930337
2000-02-01,45.0,0.02276943835385394
2000-02-02,45.0,0.02276943835385394
2000-02-03,43.0,0.021757463315904873
2000-02-04,42.0,0.021251475796930337
2000-02-05,42.0,0.021251475796930337
2000-02-06,41.0,0.02074548827795581
2000-02-07,40.0,0.020239500758981278
2000-02-08,39.0,0.019733513240006748
2000-02-09,39.0,0.019733513240006748
2000-02-10,39.0,0.019733513240006748
2000-02-11,39.0,0.019733513240006748
2000-02-12,40.0,0.020239500758981278
2000-02-13,39.0,0.019733513240006748
2000-02-14,40.0,0.020239500758981278
2000-02-15,49.0,0.024793388429752067
2000-02-16,45.0,0.02276943835385394
2000-02-17,43.0,0.021757463315904873
2000-02-18,41.0,0.02074548827795581
2000-02-19,42.0,0.021251475796930337
2000-02-20,43.0,0.021757463315904873
2000-02-21,41.0,0.02074548827795581
2000-02-22,40.0,0.020239500758981278
2000-02-23,40.0,0.020239500758981278
2000-02-24,44.0,0.022263450834879406
2000-02-25,61.0,0.030865238657446455
2000-02-26,69.0,0.03491313880924271
2000-02-27,67.0,0.033901163771293645
2000-02-28,128.0,0.06476640242874009
2000-02-29,262.0,0.13256872997132738
2000-03-01,222.0,0.11232922921234609
2000-03-02,189.0,0.09563164108618653
2000-03-03,172.0,0.08702985326361949
2000-03-04,151.0,0.07640411536515433
2000-03-05,135.0,0.06830831506156182
2000-03-06,119.0,0.0602125147579693
2000-03-07,116.0,0.058694552201045705
2000-03-08,133.0,0.06729634002361275
2000-03-09,165.0,0.08348794063079777
2000-03-10,252.0,0.12750885478158205
2000-03-11,220.0,0.11131725417439704
2000-03-12,184.0,0.09310170349131389
2000-03-13,178.0,0.09006577837746668
2000-03-14,143.0,0.07235621521335807
2000-03-15,135.0,0.06830831506156182
2000-03-16,185.0,0.09360769101028842
2000-03-17,253.0,0.12801484230055657
2000-03-18,209.0,0.10575139146567718
2000-03-19,156.0,0.07893405296002699
2000-03-20,138.0,0.06982627761848542
2000-03-21,135.0,0.06830831506156182
2000-03-22,159.0,0.08045201551695058
2000-03-23,221.0,0.11182324169337156
2000-03-24,331.0,0.1674818687805701
2000-03-25,368.0,0.18620340698262777
2000-03-26,393.0,0.19885309495699108
2000-03-27,470.0,0.23781413391803002
2000-03-28,1090.0,0.5515263956822398
2000-03-29,1700.0,0.8601787822567042
2000-03-30,842.0,0.4260414909765559
2000-03-31,533.0,0.26969134761342556
2000-04-01,404.0,0.20441895766571092
2000-04-02,375.0,0.1897453196154495
2000-04-03,579.0,0.292966773486254
2000-04-04,1020.0,0.5161072693540226
2000-04-05,1040.0,0.5262270197335133
2000-04-06,590.0,0.29853263619497383
2000-04-07,397.0,0.2008770450328892
2000-04-08,341.0,0.1725417439703154
2000-04-09,733.0,0.370888851408332
2000-04-10,1000.0,0.505987518974532
2000-04-11,523.0,0.26463147242368024
2000-04-12,389.0,0.19682914488109293
2000-04-13,338.0,0.17102378141339178
2000-04-14,269.0,0.1361106426041491
2000-04-15,234.0,0.11840107944004047
2000-04-16,212.0,0.10726935402260077
2000-04-17,192.0,0.09714960364311014
2000-04-18,174.0,0.08804182830156856
2000-04-19,163.0,0.08247596559284871
2000-04-20,158.0,0.07994602799797607
2000-04-21,151.0,0.07640411536515433
2000-04-22,220.0,0.11131725417439704
2000-04-23,625.0,0.3162421993590825
2000-04-24,1040.0,0.5262270197335133
2000-04-25,636.0,0.3218080620678023
2000-04-26,375.0,0.1897453196154495
2000-04-27,282.0,0.14268848035081802
2000-04-28,240.0,0.12143700455388767
2000-04-29,207.0,0.1047394164277281
2000-04-30,184.0,0.09310170349131389
2000-05-01,165.0,0.08348794063079777
2000-05-02,152.0,0.07691010288412886
2000-05-03,138.0,0.06982627761848542
2000-05-04,124.0,0.06274245235284197
2000-05-05,116.0,0.058694552201045705
2000-05-06,109.0,0.055152639568223985
2000-05-07,156.0,0.07893405296002699
2000-05-08,168.0,0.08500590318772135
2000-05-09,258.0,0.13054477989542926
2000-05-10,748.0,0.37847866419294995
2000-05-11,639.0,0.3233260246247259
2000-05-12,519.0,0.26260752234778206
2000-05-13,327.0,0.16545791870467194
2000-05-14,314.0,0.15888008095800304
2000-05-15,256.0,0.12953280485748017
2000-05-16,206.0,0.10423342890875359
2000-05-17,178.0,0.09006577837746668
2000-05-18,165.0,0.08348794063079777
2000-05-19,198.0,0.10018552875695731
2000-05-20,168.0,0.08500590318772135
2000-05-21,148.0,0.07488615280823073
2000-05-22,137.0,0.06932029009951088
2000-05-23,125.0,0.0632484398718165
2000-05-24,167.0,0.08449991566874683
2000-05-25,253.0,0.12801484230055657
2000-05-26,241.0,0.12194299207286222
2000-05-27,182.0,0.09208972845336483
2000-05-28,151.0,0.07640411536515433
2000-05-29,129.0,0.06527238994771463
2000-05-30,109.0,0.055152639568223985
2000-05-31,93.0,0.04705683926463148
2000-06-01,81.0,0.040984989036937085
2000-06-02,73.0,0.036937088885140835
2000-06-03,67.0,0.033901163771293645
2000-06-04,60.0,0.030359251138471918
2000-06-05,63.0,0.031877213695395513
2000-06-06,60.0,0.030359251138471918
2000-06-07,126.0,0.06375442739079103
2000-06-08,110.0,0.05565862708719852
2000-06-09,84.0,0.04250295159386067
2000-06-10,70.0,0.03541912632821723
2000-06-11,66.0,0.03339517625231911
2000-06-12,77.0,0.03896103896103896
2000-06-13,73.0,0.036937088885140835
2000-06-14,63.0,0.031877213695395513
2000-06-15,56.0,0.028335301062573787
2000-06-16,54.0,0.027323326024624728
2000-06-17,49.0,0.024793388429752067
2000-06-18,44.0,0.022263450834879406
2000-06-19,48.0,0.024287400910777534
2000-06-20,43.0,0.021757463315904873
2000-06-21,37.0,0.018721538202057682
2000-06-22,36.0,0.01821555068308315
2000-06-23,33.0,0.016697588126159554
2000-06-24,29.0,0.014673638050261426
2000-06-25,26.0,0.01315567549333783
2000-06-26,33.0,0.016697588126159554
2000-06-27,30.0,0.015179625569235959
2000-06-28,29.0,0.014673638050261426
2000-06-29,25.0,0.012649687974363298
2000-06-30,29.0,0.014673638050261426
2000-07-01,31.0,0.015685613088210492
2000-07-02,25.0,0.012649687974363298
2000-07-03,20.0,0.010119750379490639
2000-07-04,19.0,0.009613762860516108
2000-07-05,20.0,0.010119750379490639
2000-07-06,18.0,0.009107775341541575
2000-07-07,15.0,0.0075898127846179796
2000-07-08,13.0,0.006577837746668915
2000-07-09,11.0,0.0055658627087198514
2000-07-10,13.0,0.006577837746668915
2000-07-11,15.0,0.0075898127846179796
2000-07-12,12.0,0.0060718502276943835
2000-07-13,9.4,0.004756282678360601
2000-07-14,8.1,0.004098498903693708
2000-07-15,14.0,0.007083825265643447
2000-07-16,67.0,0.033901163771293645
2000-07-17,126.0,0.06375442739079103
2000-07-18,99.0,0.050092764378478656
2000-07-19,266.0,0.1345926800472255
2000-07-20,152.0,0.07691010288412886
2000-07-21,92.0,0.04655085174565694
2000-07-22,67.0,0.033901163771293645
2000-07-23,81.0,0.040984989036937085
2000-07-24,60.0,0.030359251138471918
2000-07-25,48.0,0.024287400910777534
2000-07-26,37.0,0.018721538202057682
2000-07-27,41.0,0.02074548827795581
2000-07-28,52.0,0.02631135098667566
2000-07-29,49.0,0.024793388429752067
2000-07-30,103.0,0.052116714454376795
2000-07-31,66.0,0.03339517625231911
2000-08-01,49.0,0.024793388429752067
2000-08-02,44.0,0.022263450834879406
2000-08-03,41.0,0.02074548827795581
2000-08-04,43.0,0.021757463315904873
2000-08-05,38.0,0.019227525721032215
2000-08-06,31.0,0.015685613088210492
2000-08-07,29.0,0.014673638050261426
2000-08-08,31.0,0.015685613088210492
2000-08-09,31.0,0.015685613088210492
2000-08-10,34.0,0.017203575645134087
2000-08-11,44.0,0.022263450834879406
2000-08-12,89.0,0.04503288918873334
2000-08-13,55.0,0.02782931354359926
2000-08-14,45.0,0.02276943835385394
2000-08-15,102.0,0.05161072693540226
2000-08-16,77.0,0.03896103896103896
2000-08-17,86.0,0.043514926631809746
2000-08-18,61.0,0.030865238657446455
2000-08-19,48.0,0.024287400910777534
2000-08-20,40.0,0.020239500758981278
2000-08-21,33.0,0.016697588126159554
2000-08-22,28.0,0.014167650531286893
2000-08-23,24.0,0.012143700455388767
2000-08-24,26.0,0.01315567549333783
2000-08-25,24.0,0.012143700455388767
2000-08-26,21.0,0.010625737898465168
2000-08-27,19.0,0.009613762860516108
2000-08-28,17.0,0.008601787822567044
2000-08-29,17.0,0.008601787822567044
2000-08-30,15.0,0.0075898127846179796
2000-08-31,13.0,0.006577837746668915
2000-09-01,12.0,0.0060718502276943835
2000-09-02,11.0,0.0055658627087198514
2000-09-03,13.0,0.006577837746668915
2000-09-04,15.0,0.0075898127846179796
2000-09-05,15.0,0.0075898127846179796
2000-09-06,13.0,0.006577837746668915
2000-09-07,11.0,0.0055658627087198514
2000-09-08,9.7,0.00490807893405296
2000-09-09,8.6,0.004351492663180975
2000-09-10,7.5,0.0037949063923089898
2000-09-11,6.9,0.003491313880924271
2000-09-12,6.4,0.0032383201214370052
2000-09-13,6.9,0.003491313880924271
2000-09-14,6.8,0.003440715129026817
2000-09-15,7.8,0.0039467026480013495
2000-09-16,22.0,0.011131725417439703
2000-09-17,19.0,0.009613762860516108
2000-09-18,14.0,0.007083825265643447
2000-09-19,12.0,0.0060718502276943835
2000-09-20,11.0,0.0055658627087198514
2000-09-21,10.0,0.005059875189745319
2000-09-22,8.6,0.004351492663180975
2000-09-23,7.4,0.003744307640411537
2000-09-24,7.3,0.003693708888514084
2000-09-25,7.0,0.0035419126328217233
2000-09-26,6.8,0.003440715129026817
2000-09-27,6.5,0.0032889188733344573
2000-09-28,6.0,0.0030359251138471917
2000-09-29,7.7,0.0038961038961038965
2000-09-30,4.7,0.0023781413391803004
2000-10-01,4.5,0.0022769438353853937
2000-10-02,4.4,0.002226345083487941
2000-10-03,4.5,0.0022769438353853937
2000-10-04,4.6,0.0023275425872828466
2000-10-05,4.2,0.0021251475796930344
2000-10-06,23.0,0.011637712936414236
2000-10-07,36.0,0.01821555068308315
2000-10-08,24.0,0.012143700455388767
2000-10-09,22.0,0.011131725417439703
2000-10-10,19.0,0.009613762860516108
2000-10-11,19.0,0.009613762860516108
2000-10-12,18.0,0.009107775341541575
2000-10-13,15.0,0.0075898127846179796
2000-10-14,14.0,0.007083825265643447
2000-10-15,13.0,0.006577837746668915
2000-10-16,12.0,0.0060718502276943835
2000-10-17,14.0,0.007083825265643447
2000-10-18,17.0,0.008601787822567044
2000-10-19,71.0,0.03592511384719177
2000-10-20,59.0,0.02985326361949739
2000-10-21,42.0,0.021251475796930337
2000-10-22,34.0,0.017203575645134087
2000-10-23,29.0,0.014673638050261426
2000-10-24,26.0,0.01315567549333783
2000-10-25,24.0,0.012143700455388767
2000-10-26,24.0,0.012143700455388767
2000-10-27,23.0,0.011637712936414236
2000-10-28,22.0,0.011131725417439703
2000-10-29,21.0,0.010625737898465168
2000-10-30,22.0,0.011131725417439703
2000-10-31,80.0,0.040479001517962555
2000-11-01,73.0,0.036937088885140835
2000-11-02,53.0,0.02681733850565019
2000-11-03,44.0,0.022263450834879406
2000-11-04,40.0,0.020239500758981278
2000-11-05,45.0,0.02276943835385394
2000-11-06,65.0,0.03288918873334458
2000-11-07,54.0,0.027323326024624728
2000-11-08,45.0,0.02276943835385394
2000-11-09,41.0,0.02074548827795581
2000-11-10,41.0,0.02074548827795581
2000-11-11,107.0,0.054140664530274926
2000-11-12,110.0,0.05565862708719852
2000-11-13,76.0,0.03845505144206443
2000-11-14,66.0,0.03339517625231911
2000-11-15,265.0,0.13408669252825098
2000-11-16,197.0,0.0996795412379828
2000-11-17,134.0,0.06780232754258729
2000-11-18,101.0,0.05110473941642773
2000-11-19,80.0,0.040479001517962555
2000-11-20,68.0,0.034407151290268174
2000-11-21,62.0,0.031371226176420984
2000-11-22,57.0,0.02884128858154832
2000-11-23,51.0,0.02580536346770113
2000-11-24,41.0,0.02074548827795581
2000-11-25,37.0,0.018721538202057682
2000-11-26,38.0,0.019227525721032215
2000-11-27,105.0,0.05312868949232586
2000-11-28,134.0,0.06780232754258729
2000-11-29,122.0,0.06173047731489291
2000-11-30,111.0,0.056164614606173044
2000-12-01,96.0,0.04857480182155507
2000-12-02,77.0,0.03896103896103896
2000-12-03,58.0,0.029347276100522852
2000-12-04,57.0,0.02884128858154832
2000-12-05,51.0,0.02580536346770113
2000-12-06,47.0,0.023781413391803
2000-12-07,41.0,0.02074548827795581
2000-12-08,33.0,0.016697588126159554
2000-12-09,30.0,0.015179625569235959
2000-12-10,27.0,0.013661663012312364
2000-12-11,28.0,0.014167650531286893
2000-12-12,45.0,0.02276943835385394
2000-12-13,57.0,0.02884128858154832
2000-12-14,50.0,0.025299375948726596
2000-12-15,51.0,0.02580536346770113
2000-12-16,47.0,0.023781413391803
2000-12-17,186.0,0.09411367852926296
2000-12-18,1400.0,0.7083825265643447
2000-12-19,697.0,0.3526733007252488
2000-12-20,338.0,0.17102378141339178
2000-12-21,252.0,0.12750885478158205
2000-12-22,189.0,0.09563164108618653
2000-12-23,153.0,0.07741609040310339
2000-12-24,123.0,0.06223646483386744
2000-12-25,109.0,0.055152639568223985
2000-12-26,91.0,0.046044864226682414
2000-12-27,91.0,0.046044864226682414
2000-12-28,83.0,0.04199696407488615
2000-12-29,76.0,0.03845505144206443
2000-12-30,71.0,0.03592511384719177
2000-12-31,74.0,0.037443076404115365
2001-01-01,73.0,0.036937088885140835
2001-01-02,68.0,0.034407151290268174
2001-01-03,65.0,0.03288918873334458
2001-01-04,63.0,0.031877213695395513
2001-01-05,60.0,0.030359251138471918
2001-01-06,59.0,0.02985326361949739
2001-01-07,60.0,0.030359251138471918
2001-01-08,56.0,0.028335301062573787
2001-01-09,56.0,0.028335301062573787
2001-01-10,54.0,0.027323326024624728
2001-01-11,51.0,0.02580536346770113
2001-01-12,50.0,0.025299375948726596
2001-01-13,47.0,0.023781413391803
2001-01-14,46.0,0.02327542587282847
2001-01-15,45.0,0.02276943835385394
2001-01-16,47.0,0.023781413391803
2001-01-17,47.0,0.023781413391803
2001-01-18,45.0,0.02276943835385394
2001-01-19,44.0,0.022263450834879406
2001-01-20,44.0,0.022263450834879406
2001-01-21,44.0,0.022263450834879406
2001-01-22,42.0,0.021251475796930337
2001-01-23,41.0,0.02074548827795581
2001-01-24,41.0,0.02074548827795581
2001-01-25,40.0,0.020239500758981278
2001-01-26,39.0,0.019733513240006748
2001-01-27,39.0,0.019733513240006748
2001-01-28,39.0,0.019733513240006748
2001-01-29,37.0,0.018721538202057682
2001-01-30,37.0,0.018721538202057682
2001-01-31,40.0,0.020239500758981278
2001-02-01,41.0,0.02074548827795581
2001-02-02,40.0,0.020239500758981278
2001-02-03,40.0,0.020239500758981278
2001-02-04,39.0,0.019733513240006748
2001-02-05,39.0,0.019733513240006748
2001-02-06,41.0,0.02074548827795581
2001-02-07,47.0,0.023781413391803
2001-02-08,45.0,0.02276943835385394
2001-02-09,42.0,0.021251475796930337
2001-02-10,45.0,0.02276943835385394
2001-02-11,48.0,0.024287400910777534
2001-02-12,44.0,0.022263450834879406
2001-02-13,43.0,0.021757463315904873
2001-02-14,42.0,0.021251475796930337
2001-02-15,42.0,0.021251475796930337
2001-02-16,40.0,0.020239500758981278
2001-02-17,40.0,0.020239500758981278
2001-02-18,39.0,0.019733513240006748
2001-02-19,38.0,0.019227525721032215
2001-02-20,38.0,0.019227525721032215
2001-02-21,38.0,0.019227525721032215
2001-02-22,36.0,0.01821555068308315
2001-02-23,37.0,0.018721538202057682
2001-02-24,37.0,0.018721538202057682
2001-02-25,36.0,0.01821555068308315
2001-02-26,40.0,0.020239500758981278
2001-02-27,41.0,0.02074548827795581
2001-02-28,39.0,0.019733513240006748
2001-03-01,38.0,0.019227525721032215
2001-03-02,38.0,0.019227525721032215
2001-03-03,37.0,0.018721538202057682
2001-03-04,36.0,0.01821555068308315
2001-03-05,35.0,0.017709563164108617
2001-03-06,39.0,0.019733513240006748
2001-03-07,42.0,0.021251475796930337
2001-03-08,41.0,0.02074548827795581
2001-03-09,39.0,0.019733513240006748
2001-03-10,40.0,0.020239500758981278
2001-03-11,39.0,0.019733513240006748
2001-03-12,38.0,0.019227525721032215
2001-03-13,38.0,0.019227525721032215
2001-03-14,41.0,0.02074548827795581
2001-03-15,42.0,0.021251475796930337
2001-03-16,43.0,0.021757463315904873
2001-03-17,44.0,0.022263450834879406
2001-03-18,46.0,0.02327542587282847
2001-03-19,47.0,0.023781413391803
2001-03-20,53.0,0.02681733850565019
2001-03-21,65.0,0.03288918873334458
2001-03-22,72.0,0.0364311013661663
2001-03-23,82.0,0.04149097655591162
2001-03-24,87.0,0.04402091415078428
2001-03-25,90.0,0.04553887670770788
2001-03-26,83.0,0.04199696407488615
2001-03-27,78.0,0.039467026480013497
2001-03-28,75.0,0.037949063923089894
2001-03-29,71.0,0.03592511384719177
2001-03-30,68.0,0.034407151290268174
2001-03-31,73.0,0.036937088885140835
2001-04-01,75.0,0.037949063923089894
2001-04-02,71.0,0.03592511384719177
2001-04-03,69.0,0.03491313880924271
2001-04-04,70.0,0.03541912632821723
2001-04-05,89.0,0.04503288918873334
2001-04-06,121.0,0.061224489795918366
2001-04-07,134.0,0.06780232754258729
2001-04-08,157.0,0.07944004047900152
2001-04-09,165.0,0.08348794063079777
2001-04-10,288.0,0.1457244054646652
2001-04-11,445.0,0.2251644459436667
2001-04-12,581.0,0.2939787485242031
2001-04-13,934.0,0.47259234272221284
2001-04-14,952.0,0.4817001180637544
2001-04-15,845.0,0.4275594535334795
2001-04-16,803.0,0.4063079777365492
2001-04-17,813.0,0.41136785292629446
2001-04-18,765.0,0.38708045201551694
2001-04-19,532.0,0.269185360094451
2001-04-20,533.0,0.26969134761342556
2001-04-21,699.0,0.3536852757631978
2001-04-22,1110.0,0.5616461460617306
2001-04-23,1540.0,0.7792207792207791
2001-04-24,1450.0,0.7336819025130714
2001-04-25,1380.0,0.6982627761848542
2001-04-26,898.0,0.4543767920391297
2001-04-27,680.0,0.34407151290268173
2001-04-28,567.0,0.2868949232585596
2001-04-29,431.0,0.21808062067802328
2001-04-30,359.0,0.18164951931185697
2001-05-01,332.0,0.1679878562995446
2001-05-02,320.0,0.16191600607185022
2001-05-03,283.0,0.14319446786979254
2001-05-04,236.0,0.11941305447798956
2001-05-05,198.0,0.10018552875695731
2001-05-06,170.0,0.08601787822567043
2001-05-07,146.0,0.07387417777028167
2001-05-08,130.0,0.06577837746668916
2001-05-09,115.0,0.058188564682071175
2001-05-10,104.0,0.05262270197335132
2001-05-11,93.0,0.04705683926463148
2001-05-12,86.0,0.043514926631809746
2001-05-13,132.0,0.06679035250463822
2001-05-14,105.0,0.05312868949232586
2001-05-15,87.0,0.04402091415078428
2001-05-16,83.0,0.04199696407488615
2001-05-17,80.0,0.040479001517962555
2001-05-18,73.0,0.036937088885140835
2001-05-19,81.0,0.040984989036937085
2001-05-20,85.0,0.043008939112835216
2001-05-21,70.0,0.03541912632821723
2001-05-22,60.0,0.030359251138471918
2001-05-23,56.0,0.028335301062573787
2001-05-24,49.0,0.024793388429752067
2001-05-25,46.0,0.02327542587282847
2001-05-26,41.0,0.02074548827795581
2001-05-27,52.0,0.02631135098667566
2001-05-28,132.0,0.06679035250463822
2001-05-29,224.0,0.11334120425029515
2001-05-30,147.0,0.0743801652892562
2001-05-31,104.0,0.05262270197335132
2001-06-01,79.0,0.03997301399898803
2001-06-02,190.0,0.09613762860516108
2001-06-03,859.0,0.43464327879912296
2001-06-04,660.0,0.3339517625231911
2001-06-05,335.0,0.16950581885646823
2001-06-06,218.0,0.11030527913644797
2001-06-07,161.0,0.08146399055489965
2001-06-08,120.0,0.060718502276943837
2001-06-09,92.0,0.04655085174565694
2001-06-10,76.0,0.03845505144206443
2001-06-11,69.0,0.03491313880924271
2001-06-12,74.0,0.037443076404115365
2001-06-13,75.0,0.037949063923089894
2001-06-14,62.0,0.031371226176420984
2001-06-15,53.0,0.02681733850565019
2001-06-16,45.0,0.02276943835385394
2001-06-17,46.0,0.02327542587282847
2001-06-18,74.0,0.037443076404115365
2001-06-19,52.0,0.02631135098667566
2001-06-20,41.0,0.02074548827795581
2001-06-21,33.0,0.016697588126159554
2001-06-22,28.0,0.014167650531286893
2001-06-23,27.0,0.013661663012312364
2001-06-24,120.0,0.060718502276943837
2001-06-25,194.0,0.0981615786810592
2001-06-26,99.0,0.050092764378478656
2001-06-27,64.0,0.03238320121437004
2001-06-28,47.0,0.023781413391803
2001-06-29,36.0,0.01821555068308315
2001-06-30,30.0,0.015179625569235959
2001-07-01,44.0,0.022263450834879406
2001-07-02,126.0,0.06375442739079103
2001-07-03,59.0,0.02985326361949739
2001-07-04,44.0,0.022263450834879406
2001-07-05,130.0,0.06577837746668916
2001-07-06,126.0,0.06375442739079103
2001-07-07,77.0,0.03896103896103896
2001-07-08,63.0,0.031877213695395513
2001-07-09,58.0,0.029347276100522852
2001-07-10,52.0,0.02631135098667566
2001-07-11,66.0,0.03339517625231911
2001-07-12,181.0,0.09158374093439028
2001-07-13,120.0,0.060718502276943837
2001-07-14,83.0,0.04199696407488615
2001-07-15,65.0,0.03288918873334458
2001-07-16,53.0,0.02681733850565019
2001-07-17,55.0,0.02782931354359926
2001-07-18,89.0,0.04503288918873334
2001-07-19,62.0,0.031371226176420984
2001-07-20,46.0,0.02327542587282847
2001-07-21,35.0,0.017709563164108617
2001-07-22,29.0,0.014673638050261426
2001-07-23,25.0,0.012649687974363298
2001-07-24,22.0,0.011131725417439703
2001-07-25,21.0,0.010625737898465168
2001-07-26,19.0,0.009613762860516108
2001-07-27,17.0,0.008601787822567044
2001-07-28,14.0,0.007083825265643447
2001-07-29,12.0,0.0060718502276943835
2001-07-30,11.0,0.0055658627087198514
2001-07-31,9.0,0.004553887670770787
2001-08-01,8.8,0.004452690166975882
2001-08-02,8.5,0.004300893911283522
2001-08-03,7.2,0.00364311013661663
2001-08-04,6.3,0.0031877213695395514
2001-08-05,5.6,0.0028335301062573787
2001-08-06,5.1,0.002580536346770113
2001-08-07,4.6,0.0023275425872828466
2001-08-08,4.2,0.0021251475796930344
2001-08-09,3.8,0.0019227525721032218
2001-08-10,3.4,0.0017203575645134085
2001-08-11,3.1,0.0015685613088210492
2001-08-12,3.0,0.0015179625569235959
2001-08-13,2.9,0.0014673638050261425
2001-08-14,2.8,0.0014167650531286893
2001-08-15,2.7,0.0013661663012312366
2001-08-16,2.5,0.0012649687974363299
2001-08-17,2.5,0.0012649687974363299
2001-08-18,2.7,0.0013661663012312366
2001-08-19,2.6,0.0013155675493337832
2001-08-20,2.4,0.0012143700455388767
2001-08-21,2.5,0.0012649687974363299
2001-08-22,3.5,0.0017709563164108617
2001-08-23,6.5,0.0032889188733344573
2001-08-24,5.1,0.002580536346770113
2001-08-25,3.8,0.0019227525721032218
2001-08-26,2.9,0.0014673638050261425
2001-08-27,2.7,0.0013661663012312366
2001-08-28,2.9,0.0014673638050261425
2001-08-29,3.3,0.0016697588126159553
2001-08-30,3.3,0.0016697588126159553
2001-08-31,3.1,0.0015685613088210492
2001-09-01,4.9,0.0024793388429752068
2001-09-02,8.9,0.0045032889188733344
2001-09-03,7.1,0.0035925113847191763
2001-09-04,5.3,0.0026817338505650194
2001-09-05,4.3,0.0021757463315904874
2001-09-06,3.6,0.001821555068308315
2001-09-07,3.2,0.0016191600607185026
2001-09-08,2.8,0.0014167650531286893
2001-09-09,2.5,0.0012649687974363299
2001-09-10,2.2,0.0011131725417439706
2001-09-11,2.0,0.0010119750379490638
2001-09-12,1.7,0.0008601787822567043
2001-09-13,1.6,0.0008095800303592513
2001-09-14,1.5,0.0007589812784617979
2001-09-15,1.3,0.0006577837746668916
2001-09-16,1.3,0.0006577837746668916
2001-09-17,1.2,0.0006071850227694383
2001-09-18,1.2,0.0006071850227694383
2001-09-19,1.1,0.0005565862708719853
2001-09-20,1.1,0.0005565862708719853
2001-09-21,1.8,0.0009107775341541575
2001-09-22,5.3,0.0026817338505650194
2001-09-23,5.5,0.0027829313543599257
2001-09-24,4.0,0.0020239500758981277
2001-09-25,4.1,0.002074548827795581
2001-09-26,37.0,0.018721538202057682
2001-09-27,23.0,0.011637712936414236
2001-09-28,18.0,0.009107775341541575
2001-09-29,17.0,0.008601787822567044
2001-09-30,13.0,0.006577837746668915
2001-10-01,10.7,0.005414066453027491
2001-10-02,8.69,0.004397031539888683
2001-10-03,7.15,0.0036178107606679036
2001-10-04,6.56,0.0033192781244729295
2001-10-05,5.73,0.0028993084837240684
2001-10-06,4.94,0.0024995783437341884
2001-10-07,6.34,0.0032079608702985326
2001-10-08,9.85,0.004983977061899139
2001-10-09,4.71,0.002383201214370046
2001-10-10,5.38,0.002722212852082982
2001-10-11,5.7,0.002884128858154832
2001-10-12,5.41,0.0027373924776522176
2001-10-13,5.02,0.0025400573452521503